FW6146 Weather Reports


Display with metric or nautical units.
time (UTC)temp
F
wind
direction
speed
MPH
gust
MPH
rain 1hr
in
rain 24hr
in
rain mn
in
humidity
%
barometer
mb
20260503013013 50 320 0.0 1.0 0.00 0.06 0.06 87 1009.7
20260503012013 50 0.0 0.0 0.00 0.06 0.06 87 1009.8
20260503010958 50 0.0 0.0 0.00 0.06 0.06 87 1009.8
20260503005944 50 0.0 0.0 0.00 0.06 0.06 87 1009.8
20260503005003 50 0.0 0.0 0.00 0.06 0.06 87 1009.5
20260503003949 50 0.0 0.0 0.00 0.06 0.06 86 1009.4
20260503003007 50 0.0 0.0 0.00 0.06 0.06 86 1009.4
20260503002013 50 326 1.0 1.0 0.00 0.06 0.06 86 1009.2
20260503001012 50 0.0 0.0 0.00 0.06 0.06 86 1009.5
20260502235958 51 0.0 0.0 0.00 0.06 0.06 85 1009.2
20260502235017 51 0.0 0.0 0.00 0.06 0.06 85 1009.2
20260502234003 51 0.0 0.0 0.00 0.06 0.06 84 1009.2
20260502232948 51 0.0 1.0 0.00 0.06 0.06 83 1009.3
20260502232007 51 332 1.0 1.0 0.00 0.06 0.06 83 1009.4
20260502230953 51 0.0 1.0 0.00 0.06 0.06 82 1009.4
20260502230011 52 316 1.0 1.0 0.00 0.06 0.06 82 1009.5
20260502224958 52 306 1.0 2.0 0.00 0.06 0.06 81 1009.3
20260502224018 52 299 1.0 2.0 0.00 0.06 0.06 80 1009.3
20260502223004 52 313 0.0 2.0 0.00 0.06 0.06 79 1009.1
20260502221950 52 315 1.0 2.0 0.00 0.06 0.06 79 1009.1
20260502221049 53 305 1.0 3.0 0.00 0.06 0.06 78 1009.2
20260502215955 53 306 1.0 3.0 0.00 0.06 0.06 77 1009.3
20260502215015 53 306 2.0 2.0 0.00 0.06 0.06 77 1009.3
20260502214001 53 288 2.0 2.0 0.00 0.06 0.06 76 1009.2
20260502213100 53 292 2.0 5.0 0.00 0.06 0.06 76 1009.3
20260502212027 54 288 2.0 7.0 0.00 0.06 0.06 75 1009.0
20260502210953 53 301 4.0 8.0 0.00 0.06 0.06 74 1009.2
20260502210011 53 303 2.0 3.0 0.00 0.06 0.06 76 1009.2
20260502204957 53 300 2.0 3.0 0.00 0.06 0.06 77 1009.4
20260502204016 53 307 1.0 6.0 0.00 0.06 0.06 76 1009.4
20260502203002 52 289 2.0 3.0 0.00 0.06 0.06 77 1009.2
20260502202042 52 297 1.0 3.0 0.00 0.06 0.06 78 1009.4
20260502201008 52 296 1.0 2.0 0.00 0.06 0.06 77 1009.5
20260502195954 52 302 2.0 3.0 0.00 0.06 0.06 75 1009.8
20260502195054 52 304 2.0 3.0 0.01 0.06 0.06 74 1009.7
20260502194000 52 287 2.0 6.0 0.01 0.06 0.06 74 1009.7
20260502193018 52 279 1.0 5.0 0.01 0.06 0.06 85 1009.9
20260502192004 51 297 2.0 3.0 0.02 0.06 0.06 87 1009.8
20260502191023 50 307 2.0 2.0 0.02 0.06 0.06 88 1010.0
20260502190009 50 301 1.0 2.0 0.04 0.06 0.06 88 1009.9
20260502185047 49 319 1.0 2.0 0.03 0.05 0.05 87 1010.1
20260502184013 49 315 2.0 2.0 0.03 0.05 0.05 87 1010.1
20260502182959 49 310 1.0 2.0 0.03 0.05 0.05 87 1010.2
20260502182018 49 313 1.0 2.0 0.03 0.04 0.04 86 1010.3
20260502181004 50 305 1.0 1.0 0.03 0.04 0.04 85 1010.6
20260502163934 57 299 2.0 7.0 0.00 0.01 0.01 59 1010.3
20260502162939 56 285 2.0 3.0 0.00 0.01 0.01 59 1010.5
20260502161905 57 300 2.0 3.0 0.00 0.01 0.01 65 1010.5
20260502160924 58 233 2.0 6.0 0.00 0.01 0.01 61 1010.6
20260502151921 56 315 0.0 3.0 0.00 0.01 0.01 71 1011.0
20260502150906 55 317 1.0 2.0 0.00 0.01 0.01 73 1011.3
20260502122913 51 292 2.0 2.0 0.00 0.01 0.01 80 1011.8
20260502121933 50 294 1.0 1.0 0.00 0.01 0.01 81 1011.3
20260502120919 50 263 2.0 3.0 0.00 0.01 0.01 81 1011.3
20260502115724 49 308 1.0 2.0 0.00 0.01 0.01 83 1011.3
20260502114743 49 317 0.0 1.0 0.00 0.01 0.01 82 1011.0
20260502113729 48 320 1.0 2.0 0.00 0.01 0.01 82 1011.2
20260502112747 48 290 1.0 1.0 0.00 0.01 0.01 84 1011.2
20260502111733 48 319 1.0 1.0 0.00 0.01 0.01 84 1011.1
20260502110739 48 323 1.0 2.0 0.00 0.01 0.01 84 1011.2
20260502105738 47 0.0 0.0 0.00 0.01 0.01 83 1010.9
20260502104744 47 314 1.0 1.0 0.00 0.01 0.01 83 1011.2
20260502103744 47 325 1.0 3.0 0.00 0.01 0.01 84 1011.2
20260502102750 47 318 0.0 1.0 0.00 0.01 0.01 85 1010.7
20260502101749 46 0.0 0.0 0.00 0.01 0.01 86 1010.6
20260502100735 45 313 0.0 1.0 0.01 0.01 0.01 87 1010.8
20260502090750 47 0.0 0.0 0.00 0.00 0.00 83 1010.6
20260502070746 49 0.0 0.0 0.00 0.00 0.00 71 1010.8
20260502065752 49 304 0.0 1.0 0.00 0.00 0.00 71 1010.9
20260502064752 49 304 1.0 1.0 0.00 0.00 0.00 72 1010.8
20260502063838 49 305 0.0 1.0 0.00 0.00 0.00 72 1010.9
20260502062817 49 305 0.0 1.0 0.00 0.00 0.00 70 1010.7
20260502061743 48 307 0.0 1.0 0.00 0.00 0.00 71 1010.8
20260502060749 49 307 1.0 1.0 0.00 0.00 0.00 70 1010.7
20260502055748 48 307 0.0 1.0 0.00 0.00 0.00 70 1010.8
20260502054734 48 307 1.0 1.0 0.00 0.00 0.00 69 1010.9
20260502053753 48 0.0 0.0 0.00 0.00 0.00 71 1010.9
20260502052738 46 0.0 0.0 0.00 0.00 0.00 74 1010.8
20260502051756 46 308 0.0 1.0 0.00 0.00 0.00 73 1010.8
20260502050742 46 308 0.0 1.0 0.00 0.00 0.00 72 1010.8
20260502045800 46 308 1.0 1.0 0.00 0.00 0.00 69 1010.8
20260502044746 47 0.0 0.0 0.00 0.00 0.00 69 1011.0
20260502043732 47 0.0 0.0 0.00 0.00 0.00 67 1011.1
20260502042751 48 0.0 0.0 0.00 0.00 0.00 66 1010.8
20260502041736 48 0.0 0.0 0.00 0.00 0.00 66 1010.9
20260502040755 48 0.0 0.0 0.00 0.00 0.00 67 1011.0
20260502035741 48 0.0 0.0 0.00 0.00 0.00 66 1010.9
20260502034800 49 0.0 0.0 0.00 0.00 0.00 64 1010.9
20260502033746 50 308 0.0 1.0 0.00 0.00 0.00 58 1011.2
20260502032804 50 0.0 1.0 0.00 0.00 0.00 60 1010.8
20260502031750 50 308 1.0 2.0 0.00 0.00 0.00 61 1010.8
20260502030756 48 294 2.0 3.0 0.00 0.00 0.00 58 1010.7
20260502025756 47 331 0.0 1.0 0.00 0.00 0.00 72 1010.8
20260502024742 47 345 0.0 1.0 0.00 0.00 0.00 70 1010.6
20260502023801 47 0.0 0.0 0.00 0.00 0.00 69 1010.6
20260502022747 48 0.0 0.0 0.00 0.00 0.00 67 1010.7
20260502021806 47 0.0 0.0 0.00 0.00 0.00 65 1010.5
20260502020752 48 0.0 0.0 0.00 0.00 0.00 66 1010.7
20260502015738 49 0.0 0.0 0.00 0.00 0.00 60 1010.5
20260502014757 50 0.0 0.0 0.00 0.00 0.00 58 1010.4
20260502013743 50 0.0 0.0 0.00 0.00 0.00 56 1010.5